FW3224 Weather Reports


time (UTC)temp
F
wind
direction
speed
knots
gust
knots
rain 1hr
in
rain 24hr
in
rain mn
in
humidity
%
barometer
mb
20260507205030 46 279 5.2 8.7 0.00 0.00 0.00 69 1018.3
20260507204526 46 284 3.5 8.7 0.00 0.00 0.00 69 1018.4
20260507204026 46 277 4.3 8.7 0.00 0.00 0.00 69 1018.4
20260507203525 46 280 3.5 7.8 0.00 0.00 0.00 68 1018.2
20260507203024 46 288 4.3 8.7 0.00 0.00 0.00 68 1018.2
20260507202523 46 276 4.3 8.7 0.00 0.00 0.00 68 1018.4
20260507202024 47 271 3.5 9.6 0.00 0.00 0.00 67 1018.4
20260507201526 47 265 3.5 10.4 0.00 0.00 0.00 67 1018.4
20260507201021 47 244 6.1 10.4 0.00 0.00 0.00 66 1018.4
20260507200519 47 250 5.2 8.7 0.00 0.00 0.00 66 1018.3
20260507200019 47 252 5.2 11.3 0.00 0.00 0.00 66 1018.2
20260507195618 47 212 6.1 11.3 0.00 0.00 0.00 65 1018.1
20260507195017 47 243 6.1 11.3 0.00 0.00 0.00 65 1018.1
20260507194517 48 281 5.2 10.4 0.00 0.00 0.00 65 1018.1
20260507194016 48 284 6.1 10.4 0.00 0.00 0.00 65 1018.1
20260507193516 48 269 6.1 12.2 0.00 0.00 0.00 64 1018.0
20260507193014 48 275 4.3 12.2 0.00 0.00 0.00 64 1018.0
20260507192515 48 264 6.1 11.3 0.00 0.00 0.00 64 1017.9
20260507192016 48 279 5.2 11.3 0.00 0.00 0.00 64 1017.8
20260507191514 48 283 5.2 13.0 0.00 0.00 0.00 64 1017.8
20260507191013 48 275 6.1 11.3 0.00 0.00 0.00 63 1017.9
20260507190512 48 294 5.2 11.3 0.00 0.00 0.00 64 1017.7
20260507190011 48 271 4.3 9.6 0.00 0.00 0.00 63 1017.7
20260507185510 48 264 5.2 9.6 0.00 0.00 0.00 63 1017.7
20260507185009 48 271 4.3 9.6 0.00 0.00 0.00 63 1017.8
20260507184512 48 286 5.2 12.2 0.00 0.00 0.00 63 1017.9
20260507184007 48 294 6.1 12.2 0.00 0.00 0.00 63 1017.9
20260507183506 48 286 5.2 10.4 0.00 0.00 0.00 63 1017.8
20260507183007 48 306 6.1 10.4 0.00 0.00 0.00 63 1017.8
20260507182506 48 286 5.2 10.4 0.00 0.00 0.00 63 1017.9
20260507182006 48 241 4.3 9.6 0.00 0.00 0.00 63 1017.9
20260507181506 48 278 4.3 8.7 0.00 0.00 0.00 63 1017.9
20260507181004 48 281 4.3 8.7 0.00 0.00 0.00 63 1017.9
20260507180504 48 271 5.2 8.7 0.00 0.00 0.00 63 1018.0
20260507180007 48 249 4.3 7.8 0.00 0.00 0.00 63 1017.9
20260507175501 48 263 4.3 7.8 0.00 0.00 0.00 63 1017.9
20260507175100 48 259 3.5 10.4 0.00 0.00 0.00 62 1017.8
20260507174600 48 270 3.5 10.4 0.00 0.00 0.00 62 1017.8
20260507174501 48 259 4.3 10.4 0.00 0.00 0.00 62 1017.8
20260507174059 48 316 3.5 10.4 0.00 0.00 0.00 61 1017.9
20260507173557 48 267 3.5 7.0 0.00 0.00 0.00 61 1017.9
20260507173100 48 278 2.6 6.1 0.00 0.00 0.00 61 1017.9
20260507172555 49 274 1.7 7.0 0.00 0.00 0.00 60 1018.0
20260507172054 49 285 3.5 7.0 0.00 0.00 0.00 60 1018.1
20260507171557 49 288 3.5 7.0 0.00 0.00 0.00 59 1018.1
20260507171052 49 269 3.5 7.0 0.00 0.00 0.00 59 1018.1
20260507170552 49 279 3.5 7.0 0.00 0.00 0.00 59 1018.2
20260507170051 49 295 3.5 7.0 0.00 0.00 0.00 59 1018.2
20260507165550 49 257 3.5 7.0 0.00 0.00 0.00 59 1018.2
20260507165053 49 292 2.6 6.1 0.00 0.00 0.00 59 1018.2
20260507164548 49 281 2.6 6.1 0.00 0.00 0.00 58 1018.3
20260507164048 49 288 2.6 7.8 0.00 0.00 0.00 57 1018.3
20260507163549 49 273 2.6 7.0 0.00 0.00 0.00 57 1018.4
20260507163046 49 265 3.5 8.7 0.00 0.00 0.00 57 1018.4
20260507162546 50 298 3.5 8.7 0.00 0.00 0.00 57 1018.3
20260507162044 50 243 3.5 7.0 0.00 0.00 0.00 56 1018.4
20260507161543 50 254 2.6 6.1 0.00 0.00 0.00 56 1018.4
20260507161042 50 289 2.6 9.6 0.00 0.00 0.00 55 1018.3
20260507160541 51 282 2.6 9.6 0.00 0.00 0.00 56 1018.4
20260507160041 51 256 2.6 8.7 0.00 0.00 0.00 56 1018.4
20260507155539 51 251 3.5 7.8 0.00 0.00 0.00 55 1018.5
20260507155039 51 240 3.5 7.8 0.00 0.00 0.00 55 1018.5
20260507154538 51 217 2.6 7.8 0.00 0.00 0.00 55 1018.5
20260507154038 51 214 1.7 9.6 0.00 0.00 0.00 54 1018.5
20260507153537 51 247 2.6 9.6 0.00 0.00 0.00 54 1018.6
20260507153037 51 201 3.5 11.3 0.00 0.00 0.00 54 1018.6
20260507152536 51 236 3.5 8.7 0.00 0.00 0.00 54 1018.7
20260507152036 51 222 2.6 7.0 0.00 0.00 0.00 54 1018.7
20260507151534 51 214 3.5 7.8 0.00 0.00 0.00 54 1018.6
20260507151033 51 200 2.6 7.8 0.00 0.00 0.00 54 1018.7
20260507150533 52 146 2.6 9.6 0.00 0.00 0.00 53 1018.7
20260507150032 52 253 3.5 9.6 0.00 0.00 0.00 53 1018.7
20260507145532 52 260 3.5 7.8 0.00 0.00 0.00 53 1018.8
20260507145031 52 211 2.6 8.7 0.00 0.00 0.00 52 1018.8
20260507144534 52 277 3.5 9.6 0.00 0.00 0.00 52 1018.7
20260507144031 52 201 2.6 9.6 0.00 0.00 0.00 52 1018.8
20260507143529 52 204 1.7 10.4 0.00 0.00 0.00 53 1018.8
20260507143032 52 227 4.3 10.4 0.00 0.00 0.00 53 1018.8
20260507142529 52 267 2.6 7.0 0.00 0.00 0.00 53 1018.7
20260507142028 52 197 1.7 9.6 0.00 0.00 0.00 52 1018.8
20260507141528 52 242 3.5 9.6 0.00 0.00 0.00 52 1018.8
20260507141026 52 227 3.5 8.7 0.00 0.00 0.00 52 1018.8
20260507140525 52 260 3.5 8.7 0.00 0.00 0.00 52 1018.7
20260507140028 52 212 3.5 7.0 0.00 0.00 0.00 52 1018.8
20260507135523 52 294 2.6 12.2 0.00 0.00 0.00 52 1018.7
20260507135023 52 227 2.6 12.2 0.00 0.00 0.00 52 1018.7
20260507134525 52 186 5.2 12.2 0.00 0.00 0.00 51 1018.7
20260507134025 52 269 2.6 9.6 0.00 0.00 0.00 52 1018.7
20260507133525 52 186 3.5 12.2 0.00 0.00 0.00 52 1018.6
20260507133022 52 238 4.3 8.7 0.00 0.00 0.00 53 1018.6
20260507132520 52 230 2.6 8.7 0.00 0.00 0.00 52 1018.6
20260507132022 52 214 3.5 10.4 0.00 0.00 0.00 52 1018.7
20260507131527 52 215 3.5 11.3 0.00 0.00 0.00 51 1018.7
20260507131019 52 195 4.3 10.4 0.00 0.00 0.00 52 1018.8
20260507130518 52 253 1.7 10.4 0.00 0.00 0.00 52 1018.7
20260507130017 52 219 3.5 7.8 0.00 0.00 0.00 52 1018.6
20260507125517 52 241 2.6 10.4 0.00 0.00 0.00 52 1018.7
20260507125016 52 125 2.6 10.4 0.00 0.00 0.00 52 1018.5
20260507124518 52 217 1.7 7.0 0.00 0.00 0.00 52 1018.5
20260507124019 52 194 3.5 7.8 0.00 0.00 0.00 52 1018.5
20260507123519 52 172 3.5 8.7 0.00 0.00 0.00 51 1018.5
20260507123022 52 240 3.5 10.4 0.00 0.00 0.00 52 1018.6
20260507122517 53 221 2.6 15.6 0.00 0.00 0.00 51 1018.7
20260507122013 53 211 3.5 7.8 0.00 0.00 0.00 51 1018.7
20260507121513 53 246 3.5 8.7 0.00 0.00 0.00 51 1018.7
20260507121012 53 161 1.7 8.7 0.00 0.00 0.00 51 1018.8
20260507120511 53 215 3.5 17.4 0.00 0.00 0.00 50 1018.8
20260507120010 53 171 3.5 17.4 0.00 0.00 0.00 51 1019.0
20260507115513 53 194 4.3 13.0 0.00 0.00 0.00 50 1019.0
20260507115009 53 185 3.5 8.7 0.00 0.00 0.00 50 1019.0
20260507114509 53 197 3.5 9.6 0.00 0.00 0.00 50 1018.9
20260507114007 53 231 3.5 9.6 0.00 0.00 0.00 50 1018.9
20260507113507 53 270 3.5 13.0 0.00 0.00 0.00 50 1018.9
20260507113006 53 222 2.6 13.0 0.00 0.00 0.00 49 1018.9
20260507112506 53 225 4.3 11.3 0.00 0.00 0.00 50 1018.9
20260507112005 53 193 2.6 12.2 0.00 0.00 0.00 49 1018.7
20260507111506 53 262 3.5 12.2 0.00 0.00 0.00 49 1018.7
20260507111105 53 252 3.5 9.6 0.00 0.00 0.00 49 1018.5
20260507110502 53 178 3.5 17.4 0.00 0.00 0.00 48 1018.5
20260507110008 53 296 3.5 11.3 0.00 0.00 0.00 48 1018.5
20260507105609 54 236 3.5 12.2 0.00 0.00 0.00 48 1018.5
20260507105001 54 237 5.2 12.2 0.00 0.00 0.00 48 1018.4
20260507104600 54 243 4.3 10.4 0.00 0.00 0.00 48 1018.4
20260507104100 54 239 3.5 12.2 0.00 0.00 0.00 47 1018.4
20260507103600 54 265 5.2 12.2 0.00 0.00 0.00 46 1018.3
20260507103059 54 266 5.2 12.2 0.00 0.00 0.00 46 1018.3
20260507102558 54 259 4.3 12.2 0.00 0.00 0.00 47 1018.4
20260507102058 54 242 3.5 11.3 0.00 0.00 0.00 47 1018.4
20260507101607 54 290 5.2 15.6 0.00 0.00 0.00 46 1018.5
20260507101056 54 224 4.3 15.6 0.00 0.00 0.00 46 1018.5
20260507100559 54 237 2.6 12.2 0.00 0.00 0.00 46 1018.4
20260507100058 54 239 4.3 9.6 0.00 0.00 0.00 46 1018.4
20260507095558 55 212 3.5 8.7 0.00 0.00 0.00 46 1018.4
20260507095055 55 244 3.5 8.7 0.00 0.00 0.00 46 1018.3
20260507094600 55 294 3.5 9.6 0.00 0.00 0.00 46 1018.3
20260507094057 55 184 3.5 11.3 0.00 0.00 0.00 46 1018.2
20260507093552 55 227 4.3 11.3 0.00 0.00 0.00 46 1018.0
20260507093052 55 211 4.3 10.4 0.00 0.00 0.00 45 1017.9
20260507092551 55 242 3.5 12.2 0.00 0.00 0.00 44 1017.9
20260507092050 55 236 3.5 13.0 0.00 0.00 0.00 45 1017.8
20260507091600 55 274 4.3 13.0 0.00 0.00 0.00 45 1017.6
20260507091049 56 277 5.2 15.6 0.00 0.00 0.00 45 1017.6
20260507090549 56 184 6.1 20.0 0.00 0.00 0.00 44 1017.6
20260507090108 56 250 5.2 20.0 0.00 0.00 0.00 44 1017.6
20260507085549 56 217 7.8 20.0 0.00 0.00 0.00 45 1017.4
20260507085048 56 250 4.3 14.8 0.00 0.00 0.00 44 1017.4
20260507084547 56 257 3.5 14.8 0.00 0.00 0.00 44 1017.4
20260507084046 56 216 3.5 14.8 0.00 0.00 0.00 44 1017.4
20260507083546 56 254 4.3 13.0 0.00 0.00 0.00 43 1017.3
20260507083045 56 223 3.5 10.4 0.00 0.00 0.00 44 1017.3
20260507082547 56 246 2.6 11.3 0.00 0.00 0.00 43 1017.1
20260507082043 56 267 2.6 11.3 0.00 0.00 0.00 43 1017.0
20260507081552 56 205 4.3 9.6 0.00 0.00 0.00 43 1016.9
20260507081041 56 210 2.6 6.1 0.00 0.00 0.00 43 1016.9
20260507080540 57 226 2.6 8.7 0.00 0.00 0.00 43 1016.7
20260507080039 57 229 1.7 7.0 0.00 0.00 0.00 42 1016.5
20260507075541 57 221 1.7 10.4 0.00 0.00 0.00 43 1016.4
20260507075037 57 195 4.3 12.2 0.00 0.00 0.00 41 1016.2
20260507074540 57 198 4.3 12.2 0.00 0.00 0.00 42 1016.2
20260507074035 57 216 4.3 11.3 0.00 0.00 0.00 41 1016.1
20260507073535 57 275 4.3 11.3 0.00 0.00 0.00 41 1016.0
20260507073044 57 227 3.5 10.4 0.00 0.00 0.00 40 1016.0
20260507072534 58 249 3.5 13.0 0.00 0.00 0.00 41 1015.8
20260507072034 58 198 3.5 13.0 0.00 0.00 0.00 40 1015.7
20260507071531 58 213 5.2 13.0 0.00 0.00 0.00 39 1015.6
20260507071031 58 274 4.3 13.0 0.00 0.00 0.00 39 1015.5
20260507070531 59 193 3.5 9.6 0.00 0.00 0.00 39 1015.5
20260507070031 59 300 3.5 17.4 0.00 0.00 0.00 38 1015.4
20260507065534 59 181 6.1 17.4 0.00 0.00 0.00 37 1015.4
20260507065030 59 257 6.1 17.4 0.00 0.00 0.00 36 1015.3
20260507064530 60 216 4.3 10.4 0.00 0.00 0.00 37 1015.3
20260507064029 60 184 5.2 12.2 0.00 0.00 0.00 36 1015.4
20260507063529 60 229 5.2 12.2 0.00 0.00 0.00 36 1015.2
20260507063028 60 267 4.3 12.2 0.00 0.00 0.00 35 1015.1
20260507062528 60 157 3.5 13.0 0.00 0.00 0.00 36 1015.1
20260507062028 61 229 6.1 13.0 0.00 0.00 0.00 34 1015.0
20260507061532 61 212 5.2 14.8 0.00 0.00 0.00 34 1014.8
20260507061025 61 169 4.3 14.8 0.00 0.00 0.00 33 1014.8
20260507060525 61 248 3.5 13.9 0.00 0.00 0.00 34 1014.7
20260507060030 62 215 5.2 11.3 0.00 0.00 0.00 32 1014.7
20260507055525 62 263 4.3 14.8 0.00 0.00 0.00 32 1014.5
20260507055029 62 319 7.0 14.8 0.00 0.00 0.00 31 1014.4
20260507054524 62 236 6.1 13.9 0.00 0.00 0.00 32 1014.3
20260507054024 62 126 4.3 16.5 0.00 0.00 0.00 32 1014.2
20260507053526 62 266 7.8 16.5 0.00 0.00 0.00 31 1014.2
20260507053024 62 259 5.2 13.0 0.00 0.00 0.00 32 1014.1
20260507052523 63 223 5.2 13.0 0.00 0.00 0.00 32 1014.0
20260507052023 63 159 5.2 13.9 0.00 0.00 0.00 32 1014.0
20260507051523 63 211 5.2 15.6 0.00 0.00 0.00 32 1013.9
20260507051022 63 221 5.2 19.1 0.00 0.00 0.00 31 1014.0
20260507050524 63 184 5.2 19.1 0.00 0.00 0.00 30 1013.8
20260507050030 63 162 7.0 19.1 0.00 0.00 0.00 31 1013.7
20260507045524 63 260 7.0 19.1 0.00 0.00 0.00 30 1013.6
20260507045023 64 270 5.2 20.0 0.00 0.00 0.00 31 1013.6
20260507044538 64 290 8.7 21.7 0.00 0.00 0.00 31 1013.3
20260507044020 64 260 7.0 21.7 0.00 0.00 0.00 33 1013.3
20260507043519 64 224 6.1 15.6 0.00 0.00 0.00 33 1013.3
20260507043019 64 211 5.2 18.2 0.00 0.00 0.00 33 1013.3
20260507042520 64 193 6.1 18.2 0.00 0.00 0.00 32 1013.2
20260507042018 64 277 7.0 20.0 0.00 0.00 0.00 32 1013.0
20260507041517 64 210 7.0 20.9 0.00 0.00 0.00 32 1012.8
20260507041016 64 246 7.8 22.6 0.00 0.00 0.00 32 1012.9
20260507040515 63 263 7.0 13.9 0.00 0.00 0.00 35 1012.7
20260507040014 64 163 5.2 17.4 0.00 0.00 0.00 38 1012.7
20260507035512 66 79 6.1 15.6 0.00 0.00 0.00 39 1012.7
20260507035012 66 236 7.0 14.8 0.00 0.00 0.00 39 1012.5
20260507034511 66 229 6.1 18.2 0.00 0.00 0.00 37 1012.5
20260507034009 66 252 9.6 19.1 0.00 0.00 0.00 37 1012.4
20260507033508 66 246 7.8 19.1 0.00 0.00 0.00 40 1012.3
20260507033009 66 189 7.0 14.8 0.00 0.00 0.00 47 1012.4
20260507032505 65 238 4.3 12.2 0.00 0.00 0.00 52 1012.3
20260507032006 64 222 2.6 12.2 0.00 0.00 0.00 54 1012.3
20260507031504 63 196 4.3 14.8 0.00 0.00 0.00 53 1012.4
20260507031003 63 203 6.1 17.4 0.00 0.00 0.00 53 1012.4
20260507030502 64 236 7.0 14.8 0.00 0.00 0.00 54 1012.2
20260507030000 64 229 2.6 7.0 0.00 0.00 0.00 57 1012.3
20260507025559 64 244 3.5 7.8 0.00 0.00 0.00 58 1012.3
20260507025102 64 271 3.5 9.6 0.00 0.00 0.00 59 1012.2
20260507024617 63 292 4.3 9.6 0.00 0.00 0.00 60 1012.2
20260507024102 63 241 4.3 12.2 0.00 0.00 0.00 60 1012.3
20260507023601 63 284 7.0 12.2 0.00 0.00 0.00 59 1012.4
20260507023058 63 320 6.1 13.0 0.00 0.00 0.00 60 1012.4
20260507022558 64 240 7.8 13.9 0.00 0.00 0.00 59 1012.7
20260507022058 64 260 6.1 13.9 0.00 0.00 0.00 60 1012.6
20260507021616 63 288 7.0 13.9 0.00 0.00 0.00 60 1012.7
20260507021055 63 317 6.1 13.0 0.00 0.00 0.00 61 1012.8
20260507020554 63 233 4.3 9.6 0.00 0.00 0.00 62 1012.9
20260507020104 63 252 5.2 13.0 0.00 0.00 0.00 62 1013.0
20260507015555 62 279 4.3 13.0 0.00 0.00 0.00 61 1013.2
20260507015056 62 270 3.5 8.7 0.00 0.00 0.00 63 1013.3
20260507014611 62 242 3.5 9.6 0.00 0.00 0.00 63 1013.4
20260507014053 62 329 3.5 13.0 0.00 0.00 0.00 63 1013.4
20260507013552 61 238 7.0 13.9 0.00 0.00 0.00 63 1013.6
20260507013055 61 297 7.8 13.9 0.00 0.00 0.00 63 1013.7
20260507012554 61 280 7.0 15.6 0.00 0.00 0.00 63 1013.8
20260507012052 62 281 7.8 15.6 0.00 0.00 0.00 62 1013.8
20260507011552 62 244 5.2 19.1 0.00 0.00 0.00 62 1013.9
20260507011050 63 250 7.8 14.8 0.00 0.00 0.00 61 1013.8
20260507010555 63 279 7.0 15.6 0.00 0.00 0.00 60 1013.9
20260507005549 62 244 6.1 16.5 0.00 0.00 0.00 62 1014.0
20260507005047 62 254 7.8 15.6 0.00 0.00 0.00 61 1014.0
20260507004548 62 238 8.7 17.4 0.00 0.00 0.00 62 1014.0
20260507004047 62 265 7.0 17.4 0.00 0.00 0.00 62 1014.0
20260507003546 62 228 7.0 14.8 0.00 0.00 0.00 62 1014.0
20260507003044 62 268 5.2 13.9 0.00 0.00 0.00 64 1014.0
20260507002544 61 224 6.1 14.8 0.00 0.00 0.00 63 1014.2
20260507002045 61 223 8.7 16.5 0.00 0.00 0.00 63 1014.2
20260507001548 61 298 7.8 16.5 0.00 0.00 0.00 63 1014.2
20260507001043 61 248 8.7 13.9 0.00 0.00 0.00 63 1014.2
20260507000543 61 264 4.3 15.6 0.00 0.00 0.00 65 1014.3
20260507000044 61 251 7.0 15.6 0.00 0.00 0.00 65 1014.3
20260506235542 60 237 5.2 12.2 0.00 0.00 0.00 65 1014.3
20260506235040 60 240 4.3 13.9 0.00 0.00 0.00 66 1014.4
20260506234541 60 247 7.0 13.9 0.00 0.00 0.00 65 1014.5
20260506234041 60 293 5.2 12.2 0.00 0.00 0.00 67 1014.5
20260506233540 60 244 7.0 12.2 0.00 0.00 0.00 66 1014.3
20260506233040 60 246 4.3 9.6 0.00 0.00 0.00 68 1014.4
20260506232539 60 244 4.3 12.2 0.00 0.00 0.00 67 1014.4
20260506232040 60 244 6.1 12.2 0.00 0.00 0.00 66 1014.4
20260506231539 60 288 5.2 13.0 0.00 0.00 0.00 67 1014.5
20260506231042 60 244 5.2 13.0 0.00 0.00 0.00 67 1014.5
20260506230539 59 257 5.2 15.6 0.00 0.00 0.00 67 1014.5
20260506230037 59 213 7.8 15.6 0.00 0.00 0.00 67 1014.4
20260506225538 59 234 7.0 13.9 0.00 0.00 0.00 68 1014.4
20260506225036 59 280 4.3 13.0 0.00 0.00 0.00 69 1014.4
20260506224537 59 251 6.1 13.0 0.00 0.00 0.00 70 1014.3
20260506224035 58 255 7.0 11.3 0.00 0.00 0.00 71 1014.4
20260506223535 58 243 5.2 12.2 0.00 0.00 0.00 71 1014.4
20260506223037 58 259 6.1 12.2 0.00 0.00 0.00 72 1014.4
20260506222535 58 239 2.6 10.4 0.00 0.00 0.00 73 1014.4
20260506222035 58 271 3.5 10.4 0.00 0.00 0.00 74 1014.4
20260506221534 57 232 3.5 12.2 0.00 0.00 0.00 74 1014.4
20260506221034 57 262 4.3 13.0 0.00 0.00 0.00 75 1014.3
20260506220532 57 247 5.2 13.0 0.00 0.00 0.00 76 1014.4
20260506220036 57 262 6.1 12.2 0.00 0.00 0.00 77 1014.3
20260506215529 56 234 5.2 12.2 0.00 0.00 0.00 77 1014.2
20260506215029 56 296 5.2 10.4 0.00 0.00 0.00 78 1014.2
20260506214528 56 227 3.5 12.2 0.00 0.00 0.00 79 1014.1
20260506214028 56 229 5.2 12.2 0.00 0.00 0.00 78 1014.1
20260506213526 56 233 5.2 10.4 0.00 0.00 0.00 79 1014.1
20260506213026 56 230 4.3 13.0 0.00 0.00 0.00 79 1013.9
20260506212525 56 360 7.0 13.9 0.00 0.00 0.00 79 1013.8
20260506212024 56 230 7.8 13.9 0.00 0.00 0.00 81 1013.7
20260506211522 56 221 6.1 11.3 0.00 0.00 0.00 82 1013.6
20260506211020 56 239 4.3 12.2 0.00 0.00 0.00 84 1013.6
20260506210522 55 275 7.0 12.2 0.00 0.00 0.00 86 1013.5
20260506210019 54 263 5.2 9.6 0.00 0.00 0.00 86 1013.6
20260506205516 54 294 2.6 6.1 0.00 0.00 0.00 86 1013.6